����������;��������(kVARh)
2018-10-15 00:00;0
2018-10-15 00:15;0
2018-10-15 00:30;0
2018-10-15 00:45;0
2018-10-15 01:00;0
2018-10-15 01:15;0
2018-10-15 01:30;0
2018-10-15 01:45;0,4
2018-10-15 02:00;1,6
2018-10-15 02:15;1,6
2018-10-15 02:30;1,6
2018-10-15 02:45;2,45
2018-10-15 03:00;2,65
2018-10-15 03:15;3,05
2018-10-15 03:30;3,45
2018-10-15 03:45;1,15
2018-10-15 04:00;0,1
2018-10-15 04:15;0,05
2018-10-15 04:30;0,35
2018-10-15 04:45;0,35
2018-10-15 05:00;0
2018-10-15 05:15;0,1
2018-10-15 05:30;0,15
2018-10-15 05:45;0,5
2018-10-15 06:00;0,25
2018-10-15 06:15;0
2018-10-15 06:30;0
2018-10-15 06:45;0
2018-10-15 07:00;0
2018-10-15 07:15;0
2018-10-15 07:30;21,15
2018-10-15 07:45;7,05
2018-10-15 08:00;2,2
2018-10-15 08:15;9,95
2018-10-15 08:30;5,5
2018-10-15 08:45;12,25
2018-10-15 09:00;12,4
2018-10-15 09:15;18,55
2018-10-15 09:30;23,7
2018-10-15 09:45;26,25
2018-10-15 10:00;23,9
2018-10-15 10:15;25,2
2018-10-15 10:30;26,6
2018-10-15 10:45;29,75
2018-10-15 11:00;33,6
2018-10-15 11:15;31,95
2018-10-15 11:30;30,35
2018-10-15 11:45;38,55
2018-10-15 12:00;34,45
2018-10-15 12:15;44,4
2018-10-15 12:30;39,5
2018-10-15 12:45;42,6
2018-10-15 13:00;41,4
2018-10-15 13:15;40,3
2018-10-15 13:30;37,35
2018-10-15 13:45;34,65
2018-10-15 14:00;37,8
2018-10-15 14:15;29,85
2018-10-15 14:30;38,3
2018-10-15 14:45;31,45
2018-10-15 15:00;28,85
2018-10-15 15:15;25,2
2018-10-15 15:30;25
2018-10-15 15:45;26,2
2018-10-15 16:00;25,3
2018-10-15 16:15;22,6
2018-10-15 16:30;20,7
2018-10-15 16:45;22,4
2018-10-15 17:00;20,55
2018-10-15 17:15;19,15
2018-10-15 17:30;17,8
2018-10-15 17:45;18,4
2018-10-15 18:00;23,6
2018-10-15 18:15;14,85
2018-10-15 18:30;12,5
2018-10-15 18:45;19,3
2018-10-15 19:00;11,45
2018-10-15 19:15;9,1
2018-10-15 19:30;7,45
2018-10-15 19:45;8,05
2018-10-15 20:00;8,2
2018-10-15 20:15;6,9
2018-10-15 20:30;5,25
2018-10-15 20:45;4,8
2018-10-15 21:00;5,45
2018-10-15 21:15;6,3
2018-10-15 21:30;6,45
2018-10-15 21:45;4
2018-10-15 22:00;2,05
2018-10-15 22:15;2,55
2018-10-15 22:30;3,15
2018-10-15 22:45;2,65
2018-10-15 23:00;0,05
2018-10-15 23:15;0
2018-10-15 23:30;0
2018-10-15 23:45;0
2018-10-16 00:00;0
2018-10-16 00:15;0
2018-10-16 00:30;0
2018-10-16 00:45;0
2018-10-16 01:00;0
2018-10-16 01:15;0
2018-10-16 01:30;0
2018-10-16 01:45;0
2018-10-16 02:00;0
2018-10-16 02:15;0
2018-10-16 02:30;0
2018-10-16 02:45;0
2018-10-16 03:00;0
2018-10-16 03:15;0
2018-10-16 03:30;0
2018-10-16 03:45;0
2018-10-16 04:00;0
2018-10-16 04:15;0
2018-10-16 04:30;0
2018-10-16 04:45;0
2018-10-16 05:00;0
2018-10-16 05:15;0
2018-10-16 05:30;0
2018-10-16 05:45;0
2018-10-16 06:00;0
2018-10-16 06:15;0
2018-10-16 06:30;0
2018-10-16 06:45;0
2018-10-16 07:00;0
2018-10-16 07:15;0,4
2018-10-16 07:30;22,95
2018-10-16 07:45;2,5
2018-10-16 08:00;0,65
2018-10-16 08:15;8
2018-10-16 08:30;5,7
2018-10-16 08:45;4,5
2018-10-16 09:00;12,05
2018-10-16 09:15;12,05
2018-10-16 09:30;20,4
2018-10-16 09:45;29,35
2018-10-16 10:00;25,45
2018-10-16 10:15;32,5
2018-10-16 10:30;32,4
2018-10-16 10:45;33,9
2018-10-16 11:00;35,1
2018-10-16 11:15;37,2
2018-10-16 11:30;37,45
2018-10-16 11:45;38,1
2018-10-16 12:00;40,95
2018-10-16 12:15;51,9
2018-10-16 12:30;41,9
2018-10-16 12:45;44,8
2018-10-16 13:00;40,1
2018-10-16 13:15;45,6
2018-10-16 13:30;37,95
2018-10-16 13:45;42,45
2018-10-16 14:00;38,15
2018-10-16 14:15;31,55
2018-10-16 14:30;33
2018-10-16 14:45;31,2
2018-10-16 15:00;36,2
2018-10-16 15:15;28,5
2018-10-16 15:30;28,65
2018-10-16 15:45;30,1
2018-10-16 16:00;25,75
2018-10-16 16:15;25,3
2018-10-16 16:30;23,8
2018-10-16 16:45;22
2018-10-16 17:00;20,45
2018-10-16 17:15;17,6
2018-10-16 17:30;19,6
2018-10-16 17:45;18,85
2018-10-16 18:00;17,05
2018-10-16 18:15;15,1
2018-10-16 18:30;14,75
2018-10-16 18:45;14,6
2018-10-16 19:00;10
2018-10-16 19:15;8,45
2018-10-16 19:30;8,1
2018-10-16 19:45;10,05
2018-10-16 20:00;8,3
2018-10-16 20:15;7,95
2018-10-16 20:30;9
2018-10-16 20:45;8,65
2018-10-16 21:00;9,1
2018-10-16 21:15;10,85
2018-10-16 21:30;11,55
2018-10-16 21:45;9,45
2018-10-16 22:00;8,1
2018-10-16 22:15;7,85
2018-10-16 22:30;7,4
2018-10-16 22:45;5,6
2018-10-16 23:00;4,2
2018-10-16 23:15;1,9
2018-10-16 23:30;2
2018-10-16 23:45;3
2018-10-17 00:00;2,8
2018-10-17 00:15;4,2
2018-10-17 00:30;3,1
2018-10-17 00:45;1,6
2018-10-17 01:00;2,2
2018-10-17 01:15;2,6
2018-10-17 01:30;2,35
2018-10-17 01:45;2,45
2018-10-17 02:00;2,45
2018-10-17 02:15;2,4
2018-10-17 02:30;2,55
2018-10-17 02:45;3,4
2018-10-17 03:00;1,4
2018-10-17 03:15;2,6
2018-10-17 03:30;2,9
2018-10-17 03:45;4,55
2018-10-17 04:00;3,45
2018-10-17 04:15;3,7
2018-10-17 04:30;4
2018-10-17 04:45;3,9
2018-10-17 05:00;2,8
2018-10-17 05:15;3,4
2018-10-17 05:30;5,45
2018-10-17 05:45;5,5
2018-10-17 06:00;5,95
2018-10-17 06:15;5,5
2018-10-17 06:30;4
2018-10-17 06:45;2,35
2018-10-17 07:00;8,05
2018-10-17 07:15;8,35
2018-10-17 07:30;28,15
2018-10-17 07:45;7,5
2018-10-17 08:00;7,8
2018-10-17 08:15;5,25
2018-10-17 08:30;6,4
2018-10-17 08:45;15,1
2018-10-17 09:00;10,85
2018-10-17 09:15;18,7
2018-10-17 09:30;24,7
2018-10-17 09:45;19
2018-10-17 10:00;23,4
2018-10-17 10:15;30,9
2018-10-17 10:30;24,45
2018-10-17 10:45;30,05
2018-10-17 11:00;27
2018-10-17 11:15;32,1
2018-10-17 11:30;36,05
2018-10-17 11:45;35,35
2018-10-17 12:00;37,1
2018-10-17 12:15;38,15
2018-10-17 12:30;35,8
2018-10-17 12:45;35,25
2018-10-17 13:00;38,25
2018-10-17 13:15;36,45
2018-10-17 13:30;33
2018-10-17 13:45;37
2018-10-17 14:00;32,85
2018-10-17 14:15;31,3
2018-10-17 14:30;31,1
2018-10-17 14:45;31,35
2018-10-17 15:00;36,25
2018-10-17 15:15;29,15
2018-10-17 15:30;26,6
2018-10-17 15:45;30,1
2018-10-17 16:00;19,45
2018-10-17 16:15;22,7
2018-10-17 16:30;25,25
2018-10-17 16:45;18,85
2018-10-17 17:00;18,65
2018-10-17 17:15;20,75
2018-10-17 17:30;14,05
2018-10-17 17:45;15,1
2018-10-17 18:00;11,65
2018-10-17 18:15;20,1
2018-10-17 18:30;9,2
2018-10-17 18:45;14,4
2018-10-17 19:00;16,85
2018-10-17 19:15;9,1
2018-10-17 19:30;7,15
2018-10-17 19:45;8,5
2018-10-17 20:00;7,25
2018-10-17 20:15;4,7
2018-10-17 20:30;4,9
2018-10-17 20:45;4,6
2018-10-17 21:00;4,9
2018-10-17 21:15;3,3
2018-10-17 21:30;2,8
2018-10-17 21:45;1,15
2018-10-17 22:00;0,25
2018-10-17 22:15;0
2018-10-17 22:30;0
2018-10-17 22:45;0
2018-10-17 23:00;0
2018-10-17 23:15;0
2018-10-17 23:30;0
2018-10-17 23:45;0
2018-10-18 00:00;0
2018-10-18 00:15;0
2018-10-18 00:30;0
2018-10-18 00:45;0
2018-10-18 01:00;0
2018-10-18 01:15;0
2018-10-18 01:30;0
2018-10-18 01:45;0
2018-10-18 02:00;0
2018-10-18 02:15;0
2018-10-18 02:30;0
2018-10-18 02:45;0
2018-10-18 03:00;0
2018-10-18 03:15;0
2018-10-18 03:30;0
2018-10-18 03:45;0
2018-10-18 04:00;0
2018-10-18 04:15;0
2018-10-18 04:30;0,05
2018-10-18 04:45;0
2018-10-18 05:00;0
2018-10-18 05:15;0
2018-10-18 05:30;0
2018-10-18 05:45;0
2018-10-18 06:00;0
2018-10-18 06:15;0
2018-10-18 06:30;0
2018-10-18 06:45;0,25
2018-10-18 07:00;0,1
2018-10-18 07:15;0
2018-10-18 07:30;22,65
2018-10-18 07:45;9,45
2018-10-18 08:00;5,05
2018-10-18 08:15;13,9
2018-10-18 08:30;12,1
2018-10-18 08:45;17,55
2018-10-18 09:00;16,5
2018-10-18 09:15;16,4
2018-10-18 09:30;18,95
2018-10-18 09:45;17,15
2018-10-18 10:00;22,15
2018-10-18 10:15;21,35
2018-10-18 10:30;22,95
2018-10-18 10:45;23,5
2018-10-18 11:00;22,75
2018-10-18 11:15;24,55
2018-10-18 11:30;28
2018-10-18 11:45;28,9
2018-10-18 12:00;30,55
2018-10-18 12:15;34,6
2018-10-18 12:30;28
2018-10-18 12:45;35,9
2018-10-18 13:00;29,35
2018-10-18 13:15;34,9
2018-10-18 13:30;27,55
2018-10-18 13:45;26,3
2018-10-18 14:00;25,65
2018-10-18 14:15;25
2018-10-18 14:30;23,5
2018-10-18 14:45;22,4
2018-10-18 15:00;21,65
2018-10-18 15:15;21,5
2018-10-18 15:30;22,75
2018-10-18 15:45;22,75
2018-10-18 16:00;22,9
2018-10-18 16:15;21,65
2018-10-18 16:30;20,65
2018-10-18 16:45;19,45
2018-10-18 17:00;14,65
2018-10-18 17:15;8,7
2018-10-18 17:30;7,8
2018-10-18 17:45;8,1
2018-10-18 18:00;6,4
2018-10-18 18:15;4,9
2018-10-18 18:30;2,45
2018-10-18 18:45;2,65
2018-10-18 19:00;2,6
2018-10-18 19:15;0,7
2018-10-18 19:30;0,35
2018-10-18 19:45;0,15
2018-10-18 20:00;0
2018-10-18 20:15;1,35
2018-10-18 20:30;2,95
2018-10-18 20:45;2,75
2018-10-18 21:00;8
2018-10-18 21:15;10,1
2018-10-18 21:30;11,8
2018-10-18 21:45;10,75
2018-10-18 22:00;11,45
2018-10-18 22:15;9,75
2018-10-18 22:30;5,7
2018-10-18 22:45;3,4
2018-10-18 23:00;3,5
2018-10-18 23:15;0,35
2018-10-18 23:30;1,15
2018-10-18 23:45;0,95
2018-10-19 00:00;0
2018-10-19 00:15;0,55
2018-10-19 00:30;0,05
2018-10-19 00:45;0,15
2018-10-19 01:00;0,6
2018-10-19 01:15;1,5
2018-10-19 01:30;0,2
2018-10-19 01:45;0,65
2018-10-19 02:00;1,45
2018-10-19 02:15;1
2018-10-19 02:30;1,25
2018-10-19 02:45;1,85
2018-10-19 03:00;1,95
2018-10-19 03:15;1,4
2018-10-19 03:30;2,3
2018-10-19 03:45;2,9
2018-10-19 04:00;3,2
2018-10-19 04:15;3,15
2018-10-19 04:30;2,85
2018-10-19 04:45;2,9
2018-10-19 05:00;3,25
2018-10-19 05:15;2,65
2018-10-19 05:30;2,45
2018-10-19 05:45;3,2
2018-10-19 06:00;2,4
2018-10-19 06:15;7,35
2018-10-19 06:30;6,55
2018-10-19 06:45;6,4
2018-10-19 07:00;4,55
2018-10-19 07:15;4,95
2018-10-19 07:30;8,1
2018-10-19 07:45;11
2018-10-19 08:00;12,3
2018-10-19 08:15;14,75
2018-10-19 08:30;14,85
2018-10-19 08:45;43,75
2018-10-19 09:00;24,1
2018-10-19 09:15;26,05
2018-10-19 09:30;23,2
2018-10-19 09:45;25,5
2018-10-19 10:00;26,4
2018-10-19 10:15;27
2018-10-19 10:30;29,35
2018-10-19 10:45;29,25
2018-10-19 11:00;29,2
2018-10-19 11:15;31,7
2018-10-19 11:30;30,3
2018-10-19 11:45;33,6
2018-10-19 12:00;30,5
2018-10-19 12:15;31,75
2018-10-19 12:30;28,65
2018-10-19 12:45;25,3
2018-10-19 13:00;24,2
2018-10-19 13:15;23,9
2018-10-19 13:30;20,2
2018-10-19 13:45;19,7
2018-10-19 14:00;19,6
2018-10-19 14:15;21,15
2018-10-19 14:30;21,5
2018-10-19 14:45;22
2018-10-19 15:00;23
2018-10-19 15:15;17,25
2018-10-19 15:30;14,25
2018-10-19 15:45;14,05
2018-10-19 16:00;14
2018-10-19 16:15;12,45
2018-10-19 16:30;11,95
2018-10-19 16:45;10,9
2018-10-19 17:00;8,45
2018-10-19 17:15;8,35
2018-10-19 17:30;8
2018-10-19 17:45;6,8
2018-10-19 18:00;4,2
2018-10-19 18:15;2,6
2018-10-19 18:30;1,9
2018-10-19 18:45;1,3
2018-10-19 19:00;1,35
2018-10-19 19:15;1,35
2018-10-19 19:30;4,3
2018-10-19 19:45;8,75
2018-10-19 20:00;7,95
2018-10-19 20:15;7,25
2018-10-19 20:30;9,25
2018-10-19 20:45;9,95
2018-10-19 21:00;11,05
2018-10-19 21:15;12,7
2018-10-19 21:30;11,4
2018-10-19 21:45;9,35
2018-10-19 22:00;9,15
2018-10-19 22:15;4,45
2018-10-19 22:30;0,15
2018-10-19 22:45;0
2018-10-19 23:00;0
2018-10-19 23:15;0
2018-10-19 23:30;0
2018-10-19 23:45;0
2018-10-20 00:00;0
2018-10-20 00:15;0,05
2018-10-20 00:30;0
2018-10-20 00:45;0
2018-10-20 01:00;0
2018-10-20 01:15;0
2018-10-20 01:30;0
2018-10-20 01:45;0
2018-10-20 02:00;0
2018-10-20 02:15;0
2018-10-20 02:30;0
2018-10-20 02:45;0,05
2018-10-20 03:00;0
2018-10-20 03:15;0
2018-10-20 03:30;0
2018-10-20 03:45;0
2018-10-20 04:00;0
2018-10-20 04:15;0
2018-10-20 04:30;0,1
2018-10-20 04:45;0
2018-10-20 05:00;0
2018-10-20 05:15;0,1
2018-10-20 05:30;0
2018-10-20 05:45;0
2018-10-20 06:00;0,1
2018-10-20 06:15;0
2018-10-20 06:30;0
2018-10-20 06:45;0
2018-10-20 07:00;0
2018-10-20 07:15;0
2018-10-20 07:30;0
2018-10-20 07:45;0,5
2018-10-20 08:00;0,95
2018-10-20 08:15;0,05
2018-10-20 08:30;0
2018-10-20 08:45;0
2018-10-20 09:00;0
2018-10-20 09:15;0,4
2018-10-20 09:30;0,15
2018-10-20 09:45;0,35
2018-10-20 10:00;1,45
2018-10-20 10:15;11,4
2018-10-20 10:30;11
2018-10-20 10:45;8,15
2018-10-20 11:00;5,15
2018-10-20 11:15;5,85
2018-10-20 11:30;4,65
2018-10-20 11:45;3,9
2018-10-20 12:00;4,05
2018-10-20 12:15;6,7
2018-10-20 12:30;5,25
2018-10-20 12:45;1,75
2018-10-20 13:00;2,95
2018-10-20 13:15;2,15
2018-10-20 13:30;6,3
2018-10-20 13:45;4,1
2018-10-20 14:00;3,15
2018-10-20 14:15;4,45
2018-10-20 14:30;2,45
2018-10-20 14:45;4,05
2018-10-20 15:00;5,6
2018-10-20 15:15;6,55
2018-10-20 15:30;7,05
2018-10-20 15:45;6,1
2018-10-20 16:00;7,65
2018-10-20 16:15;7,65
2018-10-20 16:30;8,15
2018-10-20 16:45;2,2
2018-10-20 17:00;3,1
2018-10-20 17:15;1,95
2018-10-20 17:30;3,8
2018-10-20 17:45;4,4
2018-10-20 18:00;2,2
2018-10-20 18:15;1,95
2018-10-20 18:30;0,85
2018-10-20 18:45;1,2
2018-10-20 19:00;0,4
2018-10-20 19:15;0,6
2018-10-20 19:30;1,35
2018-10-20 19:45;1,95
2018-10-20 20:00;2,5
2018-10-20 20:15;2,1
2018-10-20 20:30;5,05
2018-10-20 20:45;5,4
2018-10-20 21:00;6,15
2018-10-20 21:15;5,3
2018-10-20 21:30;5,3
2018-10-20 21:45;4,85
2018-10-20 22:00;6,1
2018-10-20 22:15;2,25
2018-10-20 22:30;0,35
2018-10-20 22:45;0
2018-10-20 23:00;0
2018-10-20 23:15;0,05
2018-10-20 23:30;0,05
2018-10-20 23:45;0
2018-10-21 00:00;0
2018-10-21 00:15;0
2018-10-21 00:30;0
2018-10-21 00:45;0
2018-10-21 01:00;0
2018-10-21 01:15;0
2018-10-21 01:30;0
2018-10-21 01:45;0
2018-10-21 02:00;0
2018-10-21 02:15;0
2018-10-21 02:30;0,05
2018-10-21 02:45;0,05
2018-10-21 03:00;0
2018-10-21 03:15;0
2018-10-21 03:30;0
2018-10-21 03:45;0,25
2018-10-21 04:00;0,5
2018-10-21 04:15;0,45
2018-10-21 04:30;0,35
2018-10-21 04:45;0,15
2018-10-21 05:00;0,4
2018-10-21 05:15;0,2
2018-10-21 05:30;0,3
2018-10-21 05:45;0,9
2018-10-21 06:00;0,85
2018-10-21 06:15;0
2018-10-21 06:30;0
2018-10-21 06:45;0
2018-10-21 07:00;0
2018-10-21 07:15;0
2018-10-21 07:30;0
2018-10-21 07:45;0
2018-10-21 08:00;0
2018-10-21 08:15;0
2018-10-21 08:30;0,1
2018-10-21 08:45;0,35
2018-10-21 09:00;1,15
2018-10-21 09:15;7,3
2018-10-21 09:30;5,75
2018-10-21 09:45;4,9
2018-10-21 10:00;4,15
2018-10-21 10:15;4,9
2018-10-21 10:30;4,35
2018-10-21 10:45;1,4
2018-10-21 11:00;1,05
2018-10-21 11:15;3,4
2018-10-21 11:30;3,9
2018-10-21 11:45;4,25
2018-10-21 12:00;8,15
2018-10-21 12:15;6,2
2018-10-21 12:30;5,95
2018-10-21 12:45;6,35
2018-10-21 13:00;7,2
2018-10-21 13:15;6,6
2018-10-21 13:30;2,25
2018-10-21 13:45;3,6
2018-10-21 14:00;4,5
2018-10-21 14:15;4,55
2018-10-21 14:30;5,55
2018-10-21 14:45;6,65
2018-10-21 15:00;7,3
2018-10-21 15:15;7,95
2018-10-21 15:30;9,7
2018-10-21 15:45;11,1
2018-10-21 16:00;9,75
2018-10-21 16:15;9,8
2018-10-21 16:30;8,5
2018-10-21 16:45;8
2018-10-21 17:00;7,2
2018-10-21 17:15;6,95
2018-10-21 17:30;6,05
2018-10-21 17:45;7,35
2018-10-21 18:00;6,9
2018-10-21 18:15;8,1
2018-10-21 18:30;6,45
2018-10-21 18:45;7,8
2018-10-21 19:00;8,25
2018-10-21 19:15;6,25
2018-10-21 19:30;5,8
2018-10-21 19:45;8,25
2018-10-21 20:00;7,25
2018-10-21 20:15;8,5
2018-10-21 20:30;11,25
2018-10-21 20:45;11,55
2018-10-21 21:00;12,4
2018-10-21 21:15;11,8
2018-10-21 21:30;12,6
2018-10-21 21:45;12,2
2018-10-21 22:00;10,1
2018-10-21 22:15;5,3
2018-10-21 22:30;2,6
2018-10-21 22:45;2,05
2018-10-21 23:00;2,65
2018-10-21 23:15;1,8
2018-10-21 23:30;0,1
2018-10-21 23:45;0

